Flag for U.S.A. Weather past 2 weeks in Peoria, Illinois, U.S.A.

Now
57 °F

Sunny.


Feels Like: 55 °F
Forecast: 39 / 69 °F
Wind: 8 mph from Southeast

Location: Greater Peoria Regional Airport


UV Index: 5 (Moderate)

Visibility: 10 mi


Pressure: 30.32 "Hg

Humidity: 33%

Dew point: 28 °F

Location of PeoriaLocation

Historic Weather in Peoria

°F

Peoria temperature yesterday

Maximum temperature yesterday: 66 °F (at 2:54 PM)
Minimum temperature yesterday: 40 °F (at 5:54 AM)
Average temperature yesterday: 54 °F

Past Weeks' High & Low Weather Summary

 TemperatureHumidityPressure
High80 °F (Apr 12, 2:54 PM)92% (Apr 14, 6:54 PM)30.35 "Hg (Apr 14, 6:54 PM)
Low27 °F (Apr 15, 6:54 AM)17% (Apr 11, 3:54 PM)29.40 "Hg (Apr 13, 11:54 PM)
Average50 °F55%29.98 "Hg
* Reported Apr 4 8:54 AM — Apr 19 8:54 AM, Peoria, Weather by CustomWeather, © 2014

Note: Actual official high and low records may vary slightly from our data, if they occured in-between our weather recording intervals... More about our weather records

Advertising

Historic Weather Conditions — Data for Previous 24 hours

 ConditionsComfort  
Time TempWeatherWind HumidityBarometerVisibility
8:54 AM
Apr 19
50 °FSunny.8 mph41%30.33 "Hg10 mi
7:54 AM44 °FSunny.8 mph49%30.33 "Hg10 mi
6:54 AM40 °FClear.9 mph55%30.32 "Hg10 mi
5:54 AM39 °FClear.8 mph55%30.32 "Hg10 mi
4:54 AM40 °FClear.9 mph53%30.31 "Hg10 mi
3:54 AM40 °FClear.13 mph58%30.30 "Hg10 mi
2:54 AM41 °FClear.10 mph60%30.32 "Hg10 mi
1:54 AM42 °FClear.10 mph65%30.33 "Hg10 mi
12:54 AM44 °FClear.15 mph65%30.32 "Hg10 mi
11:54 PM
Apr 18
47 °FClear.16 mph66%30.30 "Hg9 mi
10:54 PM51 °FClear.15 mph59%30.29 "Hg10 mi
9:54 PM56 °FClear.13 mph44%30.28 "Hg10 mi
8:54 PM58 °FClear.5 mph31%30.27 "Hg10 mi
7:54 PM60 °FSunny.5 mph30%30.25 "Hg10 mi
6:54 PM64 °FSunny.6 mph23%30.24 "Hg10 mi
5:54 PM65 °FSunny.5 mph21%30.26 "Hg10 mi
4:54 PM65 °FSunny.No wind26%30.26 "Hg10 mi
3:54 PM65 °FSunny.8 mph31%30.27 "Hg10 mi
2:54 PM66 °FSunny.5 mph32%30.29 "Hg10 mi
1:54 PM62 °FSunny.5 mph30%30.32 "Hg10 mi
12:54 PM61 °FSunny.5 mph32%30.33 "Hg10 mi
11:54 AM60 °FSunny.6 mph38%30.35 "Hg10 mi
10:54 AM55 °FSunny.6 mph51%30.34 "Hg10 mi
Weather by CustomWeather, © 2014

See weather overview